Weather History for Ely, NV

Change the Weather History Date:

Saturday, August 31, 2013

  Actual Average Record
Temperature  
Mean Temperature 70 °F 63 °F  
Max Temperature 84 °F 82 °F 92 °F (1950)
Min Temperature 55 °F 44 °F 29 °F (1962)
Degree Days  
Heating Degree Days 0 3  
Month to date heating degree days 3 41  
Since 1 June heating degree days 103 239  
Since 1 July heating degree days 8 64  
Cooling Degree Days 5 1  
Month to date cooling degree days 102 77  
Year to date cooling degree days 370 212  
Since 1 June cooling degree days 370 211  
Growing Degree Days 20 (Base 50)    
Moisture  
Dew Point 55 °F    
Average Humidity 64    
Maximum Humidity 93    
Minimum Humidity 34    
Precipitation  
Precipitation 0.17 in 0.03 in 2.08 in (1909)
Month to date precipitation 0.79 0.90  
Year to date precipitation 4.15 6.64  
Snow  
Snow 0.00 in 0.00 in 0.00 in (1893)
Month to date snowfall 0.0 0.0  
Since 1 June snowfall 0.0 0.1  
Since 1 July snowfall 0.0 0.0  
Snow Depth 0.00 in    
Sea Level Pressure  
Sea Level Pressure 30.01 in    
Wind  
Wind Speed 9 mph (South)    
Max Wind Speed 24 mph    
Max Gust Speed 30 mph    
Visibility 9 miles    
Events Rain , Thunderstorm    
T = Trace of Precipitation, MM = Missing Value Source: NWS Daily Summary

Daily Weather History Graph

Daily Weather History Graph

Search for Another Location

Airport:

Trip Planner

Search our weather history database for the weather conditions in past years. The results will help you decide how hot, cold, wet, or windy it might be!

Date:

Astronomy

Aug. 31, 2013 Rise Set
Actual Time 6:07 AM PDT 7:11 PM PDT
Civil Twilight 5:39 AM PDT 7:38 PM PDT
Nautical Twilight 5:06 AM PDT 8:11 PM PDT
Astronomical Twilight 4:32 AM PDT 8:45 PM PDT
Moon 1:40 AM PDT (8/31) 4:11 PM PDT (8/31)
Length of Visible Light 13h 58m
Length of Day
13h 03m
Waning Crescent, 20% of the Moon is Illuminated
Aug 31
Waning Crescent
Sep 5
New
Sep 12
First Quarter
Sep 19
Full
Sep 26
Last Quarter

Hourly Weather History & Observations

Time (PDT) Temp. Dew Point Humidity Pressure Visibility Wind Dir Wind Speed Gust Speed Precip Events Conditions
12:53 AM 63.0 °F 53.1 °F 70% 29.94 in 10.0 mi South 3.5 mph - N/A   Scattered Clouds
1:53 AM 63.0 °F 55.0 °F 75% 29.93 in 10.0 mi Calm Calm - N/A   Clear
2:53 AM 61.0 °F 54.0 °F 78% 29.91 in 10.0 mi South 9.2 mph - N/A   Clear
3:53 AM 59.0 °F 54.0 °F 83% 29.91 in 10.0 mi South 4.6 mph - N/A   Clear
4:53 AM 57.9 °F 54.0 °F 87% 29.93 in 10.0 mi South 8.1 mph - N/A   Clear
5:53 AM 57.9 °F 53.1 °F 84% 29.97 in 10.0 mi South 6.9 mph - N/A   Clear
6:53 AM 55.0 °F 52.0 °F 89% 30.03 in 10.0 mi South 10.4 mph - N/A   Clear
7:53 AM 60.1 °F 53.1 °F 78% 30.00 in 10.0 mi South 11.5 mph - N/A   Clear
8:53 AM 68.0 °F 53.1 °F 59% 29.99 in 10.0 mi South 11.5 mph - N/A   Clear
9:53 AM 73.9 °F 50.0 °F 43% 29.97 in 10.0 mi Calm Calm - N/A   Clear
10:53 AM 79.0 °F 50.0 °F 36% 29.95 in 10.0 mi NNE 10.4 mph - N/A   Clear
11:53 AM 80.1 °F 52.0 °F 38% 29.92 in 10.0 mi NNE 17.3 mph 21.9 mph N/A   Clear
12:53 PM 82.9 °F 51.1 °F 33% 29.89 in 10.0 mi NNE 16.1 mph 20.7 mph N/A   Clear
1:09 PM 84.2 °F 51.8 °F 33% 30.20 in 10.0 mi North 16.1 mph 24.2 mph N/A Thunderstorm Clear
1:19 PM 84.2 °F 50.0 °F 30% 30.20 in 10.0 mi North 18.4 mph 26.5 mph N/A Thunderstorm Clear
1:53 PM 81.0 °F 48.9 °F 33% 29.89 in 10.0 mi NW 10.4 mph 18.4 mph N/A Thunderstorm Thunderstorm
2:14 PM 69.8 °F 57.2 °F 64% 30.21 in 5.0 mi WNW 20.7 mph 29.9 mph 0.02 in Rain , Thunderstorm Heavy Thunderstorms and Rain
2:18 PM 69.8 °F 60.8 °F 73% 30.22 in 2.0 mi Variable 3.5 mph 29.9 mph 0.03 in Rain Heavy Rain
2:20 PM 69.8 °F 60.8 °F 73% 30.23 in 1.5 mi Variable 6.9 mph 25.3 mph 0.07 in Rain , Thunderstorm Heavy Thunderstorms and Rain
2:30 PM 69.8 °F 60.8 °F 73% 30.21 in 3.0 mi East 15.0 mph 21.9 mph 0.15 in Rain , Thunderstorm Thunderstorms and Rain
2:46 PM 69.8 °F - N/A% 30.21 in 10.0 mi East 17.3 mph 23.0 mph 0.15 in Thunderstorm Thunderstorm
2:53 PM 68.0 °F - N/A% 29.94 in 10.0 mi ESE 15.0 mph 24.2 mph 0.15 in   Mostly Cloudy
3:53 PM 68.0 °F - N/A% 29.91 in 10.0 mi SSW 10.4 mph - 0.00 in Rain Light Rain
4:53 PM 66.0 °F 60.1 °F 81% 29.97 in 10.0 mi West 16.1 mph - 0.00 in Rain , Thunderstorm Light Rain
5:29 PM 62.6 °F 57.2 °F 82% 30.24 in 10.0 mi WNW 19.6 mph 24.2 mph 0.01 in Rain Light Rain
5:53 PM 62.1 °F 61.0 °F 96% 30.02 in 9.0 mi Variable 3.5 mph - 0.02 in Rain Light Rain
6:53 PM 63.0 °F 60.1 °F 90% 30.03 in 10.0 mi SSW 12.7 mph - 0.00 in   Overcast
7:53 PM 62.1 °F 57.9 °F 86% 30.00 in 10.0 mi SSE 13.8 mph - N/A   Mostly Cloudy
8:53 PM 61.0 °F 57.0 °F 87% 29.97 in 10.0 mi SSW 4.6 mph - N/A   Clear
9:53 PM 60.1 °F 55.9 °F 86% 29.95 in 10.0 mi SSW 8.1 mph - N/A   Clear
10:53 PM 57.0 °F 55.0 °F 93% 29.94 in 10.0 mi SSW 5.8 mph - N/A   Clear
11:53 PM 55.0 °F 54.0 °F 96% 29.94 in 10.0 mi South 3.5 mph - N/A   Mostly Cloudy